Location: Newark
(44.2003°N, 3.2583°E)
Time: 10:16:42
(UTC+00:00)

Explorer 7 - Pass Details

Date: 26 October 2019
Orbit: 485 x 680 km, 50.3° (Epoch: 21 November)

Event Time Altitude Azimuth Distance (km) Brightness Sun altitude
Rises 08:47:16 0° 229° (SW) 2,606 10.3 22.3°
Reaches altitude 10° 08:49:30 10° 225° (SW) 1,701 9.4 22.6°
Maximum altitude 08:53:16 57° 146° (SE) 581 8.1 23.0°
Drops below altitude 10° 08:56:57 10° 68° (ENE) 1,669 9.6 23.5°
Sets 08:59:08 0° 64° (ENE) 2,550 10.4 23.7°
